User: anonymous
Location: The Jewett Observatory
(46.7288°N, 117.1525°W)
Time: 14:10:52
(UTC-07:00)
Language:

Cosmos 1844 Rocket - Orbit

View from above orbital plane
View from above orbital plane
View from above satellite
View from above satellite

Ground track
Ground track

The orbit data is extracted from the following two-line orbital elements,

1 17974U 87041B   14292.82781971  .00000279  00000-0  16229-3 0  2409
2 17974 071.0073 156.2727 0011906 072.9019 000.6197 14.17118748419068
Epoch (UTC): 19 October 2014 19:52:03
Eccentricity: 0.0011906
inclination: 71.0073°
perigee height: 826 km
apogee height: 844 km
right ascension of ascending node: 156.2727°
argument of perigee: 72.9019°
revolutions per day: 14.17118748
mean anomaly at epoch: 0.6197°
orbit number at epoch: 41906

The dashed part of the orbit path shows where the satellite is in the earth's shadow,  

DLR